DW7889 Weather Reports


Display with metric or nautical units.
time (UTC)temp
F
wind
direction
speed
MPH
gust
MPH
rain 1hr
in
rain 24hr
in
rain mn
in
humidity
%
barometer
mb
20260906091046 40 210 7.0 11.0 0.00 0.00 0.00 85 1024.8
20260906090602 40 214 8.0 11.0 0.00 0.00 0.00 86 1024.7
20260906090039 40 200 5.0 12.0 0.00 0.00 0.00 86 1024.5
20260906085540 40 222 8.0 16.0 0.00 0.00 0.00 86 1024.5
20260906085041 40 162 7.0 16.0 0.00 0.00 0.00 85 1024.4
20260906084527 40 160 10.0 13.0 0.00 0.00 0.00 85 1024.3
20260906084034 41 192 6.0 11.0 0.00 0.00 0.00 85 1024.3
20260906083533 41 200 6.0 14.0 0.00 0.00 0.00 84 1024.3
20260906083036 41 198 8.0 14.0 0.00 0.00 0.00 84 1024.3
20260906082538 41 202 3.0 10.0 0.00 0.00 0.00 84 1024.4
20260906082041 41 196 7.0 11.0 0.00 0.00 0.00 84 1024.3
20260906081540 42 200 5.0 9.0 0.00 0.00 0.00 84 1024.2
20260906081044 42 199 5.0 14.0 0.00 0.00 0.00 84 1024.1
20260906080527 42 203 6.0 14.0 0.00 0.00 0.00 84 1024.2
20260906080052 42 181 6.0 12.0 0.00 0.00 0.00 83 1024.0
20260906075535 42 216 7.0 14.0 0.00 0.00 0.00 83 1023.9
20260906075038 42 214 9.0 14.0 0.00 0.00 0.00 83 1024.0
20260906074601 42 226 5.0 12.0 0.00 0.00 0.00 83 1024.0
20260906074043 43 211 5.0 10.0 0.00 0.00 0.00 83 1023.9
20260906073549 43 241 6.0 10.0 0.00 0.00 0.00 83 1023.9
20260906073031 43 188 5.0 10.0 0.00 0.00 0.00 82 1023.8
20260906072534 43 228 6.0 11.0 0.00 0.00 0.00 82 1023.8
20260906072036 43 263 6.0 11.0 0.00 0.00 0.00 83 1023.9
20260906071538 43 257 5.0 10.0 0.00 0.00 0.00 83 1023.9
20260906071043 43 264 5.0 12.0 0.00 0.00 0.00 83 1023.8
20260906070525 43 209 5.0 11.0 0.00 0.00 0.00 83 1023.8
20260906070045 43 212 7.0 13.0 0.00 0.00 0.00 82 1023.9
20260906065608 43 211 8.0 13.0 0.00 0.00 0.00 83 1023.7
20260906065029 44 193 5.0 18.0 0.00 0.00 0.00 84 1023.7
20260906064535 44 188 11.0 18.0 0.00 0.00 0.00 84 1023.6
20260906064037 44 198 13.0 17.0 0.00 0.00 0.00 85 1023.5
20260906063539 44 228 8.0 14.0 0.00 0.00 0.00 85 1023.5
20260906063029 44 195 8.0 14.0 0.00 0.00 0.00 86 1023.6
20260906062535 44 173 5.0 10.0 0.00 0.00 0.00 87 1023.7
20260906062042 44 201 6.0 10.0 0.00 0.00 0.00 87 1023.5
20260906061544 44 189 5.0 10.0 0.00 0.00 0.00 86 1023.5
20260906061105 44 205 4.0 9.0 0.00 0.00 0.00 87 1023.5
20260906060528 44 189 5.0 9.0 0.00 0.00 0.00 87 1023.6
20260906060034 44 199 3.0 9.0 0.00 0.00 0.00 87 1023.6
20260906055535 44 184 4.0 11.0 0.00 0.00 0.00 87 1023.6
20260906055055 44 188 8.0 12.0 0.00 0.00 0.00 87 1023.7
20260906054537 44 169 7.0 15.0 0.00 0.00 0.00 86 1023.6
20260906054042 44 174 7.0 14.0 0.00 0.00 0.00 86 1023.6
20260906053545 44 199 8.0 14.0 0.00 0.00 0.00 85 1023.6
20260906053027 44 174 9.0 14.0 0.00 0.00 0.00 85 1023.3
20260906052530 44 175 6.0 10.0 0.00 0.00 0.00 85 1023.4
20260906052038 45 217 6.0 17.0 0.00 0.00 0.00 84 1023.4
20260906051541 45 172 9.0 17.0 0.00 0.00 0.00 84 1023.4
20260906051041 45 216 7.0 13.0 0.00 0.00 0.00 84 1023.3
20260906050525 45 166 6.0 13.0 0.00 0.00 0.00 83 1023.5
20260906050051 45 185 7.0 13.0 0.00 0.00 0.00 82 1023.5
20260906045531 45 200 8.0 12.0 0.00 0.00 0.00 82 1023.4
20260906045033 45 214 8.0 12.0 0.00 0.00 0.00 82 1023.3
20260906044537 45 217 7.0 12.0 0.00 0.00 0.00 83 1023.4
20260906044039 45 213 6.0 11.0 0.00 0.00 0.00 82 1023.3
20260906043541 45 216 5.0 17.0 0.00 0.00 0.00 82 1023.3
20260906043044 45 193 8.0 17.0 0.00 0.00 0.00 82 1023.2
20260906042548 46 235 6.0 12.0 0.00 0.00 0.00 82 1023.2
20260906042032 46 184 4.0 19.0 0.00 0.00 0.00 83 1023.2
20260906041534 46 200 12.0 19.0 0.00 0.00 0.00 83 1023.1
20260906041041 46 211 10.0 17.0 0.00 0.00 0.00 84 1022.9
20260906040544 46 230 9.0 17.0 0.00 0.00 0.00 88 1022.9
20260906040027 46 217 9.0 16.0 0.00 0.00 0.00 89 1022.8
20260906035533 46 225 9.0 14.0 0.00 0.00 0.00 89 1022.8
20260906035037 46 200 9.0 13.0 0.00 0.00 0.00 89 1022.6
20260906034537 46 257 4.0 8.0 0.00 0.00 0.00 89 1022.6
20260906034040 47 196 6.0 8.0 0.00 0.00 0.00 89 1022.5
20260906033541 47 207 5.0 8.0 0.00 0.00 0.00 89 1022.4
20260906031602 47 207 7.0 11.0 0.00 0.00 0.00 88 1022.7
20260906031028 47 214 6.0 13.0 0.00 0.00 0.00 88 1022.7
20260906030529 47 200 8.0 13.0 0.00 0.00 0.00 88 1022.5
20260906030031 47 205 6.0 12.0 0.00 0.00 0.00 88 1022.7
20260906025535 47 230 6.0 15.0 0.00 0.00 0.00 88 1022.7
20260906025039 47 247 7.0 15.0 0.00 0.00 0.00 88 1022.7
20260906024539 47 210 8.0 11.0 0.00 0.00 0.00 88 1022.6
20260906024044 47 215 6.0 14.0 0.00 0.00 0.00 89 1022.5
20260906023544 47 193 8.0 14.0 0.00 0.00 0.00 89 1022.6
20260906023107 47 201 7.0 11.0 0.00 0.00 0.00 90 1022.5
20260906022545 47 219 7.0 12.0 0.00 0.00 0.00 90 1022.5
20260906022047 47 193 7.0 13.0 0.00 0.00 0.00 89 1022.3
20260906021529 47 200 8.0 12.0 0.00 0.00 0.00 89 1022.2
20260906021035 48 174 3.0 9.0 0.00 0.00 0.00 89 1022.1
20260906020537 47 186 6.0 9.0 0.00 0.00 0.00 89 1022.1
20260906020040 47 191 5.0 8.0 0.00 0.00 0.00 88 1022.0
20260906015603 47 184 3.0 9.0 0.00 0.00 0.00 88 1022.0
20260906015044 47 165 3.0 9.0 0.00 0.00 0.00 87 1022.2
20260906014545 47 183 5.0 9.0 0.00 0.00 0.00 87 1022.3
20260906014107 47 159 5.0 9.0 0.00 0.00 0.00 87 1022.3
20260906013548 48 215 5.0 8.0 0.00 0.00 0.00 86 1022.4
20260906013032 48 188 3.0 9.0 0.00 0.00 0.00 86 1022.4
20260906012535 48 217 5.0 9.0 0.00 0.00 0.00 85 1022.4
20260906012036 48 244 3.0 8.0 0.00 0.00 0.00 84 1022.3
20260906011537 48 309 2.0 7.0 0.00 0.00 0.00 83 1022.3
20260906011058 48 246 3.0 9.0 0.00 0.00 0.00 82 1022.3
20260906010540 49 221 4.0 9.0 0.00 0.00 0.00 81 1022.3
20260906010044 49 238 3.0 10.0 0.00 0.00 0.00 80 1022.3
20260906005542 49 184 4.0 10.0 0.00 0.00 0.00 78 1022.3
20260906004546 50 224 4.0 9.0 0.00 0.00 0.00 75 1021.9
20260906004027 51 205 5.0 9.0 0.00 0.00 0.00 73 1021.8
20260906003528 51 215 5.0 9.0 0.00 0.00 0.00 72 1021.7
20260906003031 51 214 2.0 6.0 0.00 0.00 0.00 72 1021.7
20260906002533 51 323 1.0 4.0 0.00 0.00 0.00 72 1021.4
20260906002037 51 311 0.0 5.0 0.00 0.00 0.00 72 1021.5
20260906001536 51 319 2.0 5.0 0.00 0.00 0.00 72 1021.5
20260906001039 51 333 1.0 4.0 0.00 0.00 0.00 72 1021.5
20260906000542 51 331 2.0 4.0 0.00 0.00 0.00 72 1021.4
20260906000026 51 302 2.0 4.0 0.00 0.00 0.00 72 1021.3
20260905235529 51 319 1.0 4.0 0.00 0.00 0.00 72 1021.3
20260905235033 51 326 2.0 3.0 0.00 0.00 0.00 72 1021.3
20260905234533 51 336 1.0 4.0 0.00 0.00 0.00 72 1021.4
20260905234052 51 329 2.0 5.0 0.00 0.00 0.00 71 1021.3
20260905233536 51 320 3.0 6.0 0.00 0.00 0.00 71 1021.2
20260905233036 51 323 2.0 6.0 0.00 0.00 0.00 71 1021.2
20260905232538 51 321 2.0 4.0 0.00 0.00 0.00 71 1021.3
20260905232043 51 284 3.0 4.0 0.00 0.00 0.00 71 1021.3
20260905231528 52 296 2.0 5.0 0.00 0.00 0.00 71 1021.2
20260905231106 52 297 3.0 5.0 0.00 0.00 0.00 70 1021.0
20260905230529 52 321 2.0 5.0 0.00 0.00 0.00 71 1021.0
20260905230034 52 307 3.0 4.0 0.00 0.00 0.00 70 1021.0
20260905225537 52 326 2.0 5.0 0.00 0.00 0.00 70 1021.0
20260905225039 52 270 3.0 5.0 0.00 0.00 0.00 70 1020.9
20260905224542 52 295 3.0 5.0 0.00 0.00 0.00 70 1021.0
20260905224043 52 304 4.0 5.0 0.00 0.00 0.00 70 1021.0
20260905223544 52 323 3.0 6.0 0.00 0.00 0.00 70 1020.9
20260905223044 52 319 4.0 6.0 0.00 0.00 0.00 70 1020.9
20260905222607 52 295 3.0 5.0 0.00 0.00 0.00 71 1020.8
20260905222046 52 290 3.0 5.0 0.00 0.00 0.00 71 1020.8
20260905221546 52 309 2.0 4.0 0.00 0.00 0.00 71 1020.7
20260905221028 52 322 1.0 4.0 0.00 0.00 0.00 71 1020.7
20260905220531 52 313 2.0 4.0 0.00 0.00 0.00 71 1020.7
20260905220031 52 307 2.0 4.0 0.00 0.00 0.00 71 1020.8
20260905215534 52 231 2.0 4.0 0.00 0.00 0.00 71 1020.6
20260905215033 52 311 2.0 5.0 0.00 0.00 0.00 70 1020.5
20260905214555 52 291 3.0 5.0 0.00 0.00 0.00 69 1020.5
20260905214034 53 274 2.0 6.0 0.00 0.00 0.00 69 1020.4
20260905213104 53 262 4.0 8.0 0.00 0.00 0.00 66 1020.3
20260905211545 54 257 4.0 6.0 0.00 0.00 0.00 65 1019.9
20260905211044 54 212 3.0 9.0 0.00 0.00 0.00 65 1019.8
20260905210544 54 240 3.0 11.0 0.00 0.00 0.00 64 1019.8
20260905210028 55 276 5.0 10.0 0.00 0.00 0.00 64 1019.8
20260905205531 55 255 7.0 10.0 0.00 0.00 0.00 63 1019.8
20260905205034 55 263 4.0 13.0 0.00 0.00 0.00 62 1019.7
20260905204536 55 252 3.0 13.0 0.00 0.00 0.00 62 1019.4
20260905204039 55 267 5.0 13.0 0.00 0.00 0.00 62 1019.5
20260905203539 56 230 4.0 11.0 0.00 0.00 0.00 61 1019.4
20260905203041 56 200 4.0 12.0 0.00 0.00 0.00 60 1019.4
20260905202541 56 247 7.0 12.0 0.00 0.00 0.00 59 1019.3
20260905202047 57 226 4.0 10.0 0.00 0.00 0.00 60 1019.1
20260905201546 57 228 5.0 12.0 0.00 0.00 0.00 60 1019.1
20260905201027 56 246 8.0 13.0 0.00 0.00 0.00 59 1019.0
20260905200531 57 250 7.0 13.0 0.00 0.00 0.00 58 1019.0
20260905200049 57 267 8.0 11.0 0.00 0.00 0.00 57 1018.9
20260905195528 57 219 6.0 11.0 0.00 0.00 0.00 58 1018.8
20260905195031 57 251 7.0 13.0 0.00 0.00 0.00 57 1018.7
20260905194533 57 229 6.0 12.0 0.00 0.00 0.00 59 1018.6
20260905194037 58 217 6.0 12.0 0.00 0.00 0.00 59 1018.5
20260905193541 58 188 4.0 9.0 0.00 0.00 0.00 62 1018.4
20260905193044 58 224 5.0 9.0 0.00 0.00 0.00 62 1018.4
20260905192542 58 202 5.0 10.0 0.00 0.00 0.00 61 1018.3
20260905192030 57 188 4.0 11.0 0.00 0.00 0.00 60 1018.0
20260905191531 57 216 6.0 11.0 0.00 0.00 0.00 57 1017.9
20260905191034 57 193 4.0 12.0 0.00 0.00 0.00 59 1017.8
20260905190533 58 185 8.0 12.0 0.00 0.00 0.00 59 1017.9
20260905190037 58 202 8.0 11.0 0.00 0.00 0.00 59 1017.9
20260905185559 58 226 5.0 8.0 0.00 0.00 0.00 59 1017.8
20260905185043 57 319 4.0 10.0 0.00 0.00 0.00 61 1017.9
20260905184545 57 207 6.0 12.0 0.00 0.00 0.00 62 1017.9
20260905184048 57 199 6.0 13.0 0.00 0.00 0.00 61 1018.1
20260905183607 57 168 5.0 9.0 0.00 0.00 0.00 65 1018.0
20260905183029 57 206 3.0 8.0 0.00 0.00 0.00 66 1017.9
20260905182531 57 212 5.0 12.0 0.00 0.00 0.00 64 1018.0
20260905182052 57 199 7.0 12.0 0.00 0.00 0.00 66 1018.1
20260905181531 57 285 5.0 9.0 0.00 0.00 0.00 65 1018.1
20260905181055 57 256 7.0 9.0 0.00 0.00 0.00 65 1018.2
20260905180535 57 246 4.0 11.0 0.00 0.00 0.00 65 1018.2
20260905180037 57 217 7.0 11.0 0.00 0.00 0.00 64 1018.1
20260905175600 57 209 4.0 11.0 0.00 0.00 0.00 65 1018.0
20260905175042 57 213 4.0 10.0 0.00 0.00 0.00 65 1018.0
20260905174527 57 243 7.0 10.0 0.00 0.00 0.00 62 1018.1
20260905174031 57 266 5.0 10.0 0.00 0.00 0.00 65 1018.1
20260905173531 57 302 5.0 9.0 0.00 0.00 0.00 66 1018.1
20260905173054 56 196 2.0 10.0 0.00 0.00 0.00 67 1018.1
20260905172539 56 205 5.0 11.0 0.00 0.00 0.00 66 1018.3
20260905172100 57 228 7.0 10.0 0.00 0.00 0.00 64 1018.3
20260905171542 56 243 3.0 9.0 0.00 0.00 0.00 65 1018.3
20260905171042 56 254 3.0 8.0 0.00 0.00 0.00 66 1018.4
20260905170542 56 276 5.0 8.0 0.00 0.00 0.00 67 1018.4
20260905170045 56 233 5.0 9.0 0.00 0.00 0.00 69 1018.5
20260905165607 56 201 5.0 11.0 0.00 0.00 0.00 68 1018.6
20260905165048 56 229 4.0 9.0 0.00 0.00 0.00 69 1018.5
20260905164551 56 254 4.0 11.0 0.00 0.00 0.00 68 1018.5
20260905164031 55 145 5.0 9.0 0.00 0.00 0.00 68 1018.5
20260905163533 56 189 5.0 10.0 0.00 0.00 0.00 68 1018.6
20260905163036 55 223 6.0 12.0 0.00 0.00 0.00 69 1018.7
20260905162559 55 184 7.0 12.0 0.00 0.00 0.00 68 1018.7
20260905162026 55 221 5.0 12.0 0.00 0.00 0.00 71 1018.9
20260905161529 55 204 6.0 12.0 0.00 0.00 0.00 69 1018.8
20260905161029 55 245 8.0 11.0 0.00 0.00 0.00 69 1018.6
20260905160530 55 211 5.0 14.0 0.00 0.00 0.00 68 1018.6
20260905160032 55 195 8.0 14.0 0.00 0.00 0.00 67 1018.7
20260905155534 55 246 5.0 15.0 0.00 0.00 0.00 68 1018.6
20260905155053 55 219 6.0 15.0 0.00 0.00 0.00 70 1018.6
20260905154534 55 269 4.0 12.0 0.00 0.00 0.00 70 1018.5
20260905154037 55 155 5.0 12.0 0.00 0.00 0.00 71 1018.6
20260905153557 54 205 5.0 11.0 0.00 0.00 0.00 70 1018.7
20260905151056 54 193 6.0 10.0 0.00 0.00 0.00 71 1019.1
20260905150601 54 183 1.0 10.0 0.00 0.00 0.00 69 1019.3
20260905150046 54 202 6.0 10.0 0.00 0.00 0.00 72 1019.4
20260905145547 53 190 5.0 11.0 0.00 0.00 0.00 72 1019.3
20260905145106 54 185 8.0 11.0 0.00 0.00 0.00 69 1019.4
20260905144607 54 230 5.0 14.0 0.00 0.00 0.00 72 1019.4
20260905144106 54 210 7.0 14.0 0.00 0.00 0.00 73 1019.4
20260905143546 53 242 5.0 9.0 0.00 0.00 0.00 75 1019.4
20260905143028 54 263 5.0 8.0 0.00 0.00 0.00 74 1019.4
20260905142551 53 231 5.0 10.0 0.00 0.00 0.00 78 1019.4
20260905142031 53 207 7.0 10.0 0.00 0.00 0.00 77 1019.3
20260905141534 53 198 7.0 9.0 0.00 0.00 0.00 77 1019.3
20260905141039 53 278 5.0 8.0 0.00 0.00 0.00 79 1019.4
20260905140603 53 250 3.0 7.0 0.00 0.00 0.00 82 1019.5
20260905140028 52 224 5.0 7.0 0.00 0.00 0.00 82 1019.4
20260905135532 52 252 4.0 10.0 0.00 0.00 0.00 83 1019.5
20260905135033 52 191 5.0 10.0 0.00 0.00 0.00 83 1019.6
20260905134533 52 211 6.0 10.0 0.00 0.00 0.00 83 1019.6
20260905134034 52 178 4.0 9.0 0.00 0.00 0.00 83 1019.5
20260905133537 52 181 5.0 9.0 0.00 0.00 0.00 86 1019.4
20260905133040 51 167 4.0 9.0 0.00 0.00 0.00 87 1019.4
20260905132541 51 188 2.0 8.0 0.00 0.00 0.00 88 1019.4
20260905132043 51 234 4.0 6.0 0.00 0.00 0.00 88 1019.6
20260905131608 51 165 3.0 6.0 0.00 0.00 0.00 89 1019.7
20260905131048 51 133 4.0 6.0 0.00 0.00 0.00 90 1019.6
20260905130528 50 191 2.0 7.0 0.00 0.00 0.00 91 1019.5
20260905130029 50 161 3.0 7.0 0.00 0.00 0.00 92 1019.5
20260905125535 50 162 3.0 5.0 0.00 0.00 0.00 93 1019.5
20260905125057 50 183 2.0 4.0 0.00 0.00 0.00 95 1019.5
20260905124539 50 151 2.0 4.0 0.00 0.00 0.00 95 1019.7
20260905124104 49 119 2.0 4.0 0.00 0.00 0.00 95 1019.9
20260905123545 49 181 2.0 5.0 0.00 0.00 0.00 95 1019.9
20260905123026 49 143 3.0 5.0 0.00 0.00 0.00 95 1019.9
20260905122532 49 131 1.0 5.0 0.00 0.00 0.00 95 1019.9
20260905122034 48 159 3.0 5.0 0.00 0.00 0.00 95 1019.8
20260905121556 48 157 2.0 4.0 0.00 0.00 0.00 96 1019.7
20260905121036 48 92 1.0 4.0 0.00 0.00 0.00 96 1019.5
20260905120537 48 109 2.0 6.0 0.00 0.00 0.00 96 1019.5
20260905120104 48 102 4.0 5.0 0.00 0.00 0.00 96 1019.5
20260905115528 48 110 2.0 4.0 0.00 0.00 0.00 96 1019.4
20260905115031 48 136 1.0 3.0 0.00 0.00 0.00 96 1019.4
20260905114534 48 124 1.0 3.0 0.00 0.00 0.00 96 1019.3
20260905114037 48 103 2.0 4.0 0.00 0.00 0.00 96 1019.4
20260905113544 48 98 1.0 3.0 0.00 0.00 0.00 96 1019.4
20260905113047 48 98 0.0 3.0 0.00 0.00 0.00 96 1019.4
20260905112608 48 118 2.0 3.0 0.00 0.00 0.00 96 1019.3
20260905112030 48 130 2.0 4.0 0.00 0.00 0.00 96 1019.2
20260905111531 48 132 2.0 4.0 0.00 0.00 0.00 96 1019.2
20260905111034 48 141 0.0 5.0 0.00 0.00 0.00 96 1019.2
20260905110533 47 136 3.0 5.0 0.00 0.00 0.00 96 1019.3
20260905110037 47 175 3.0 5.0 0.00 0.00 0.00 96 1019.2
20260905105540 47 167 3.0 5.0 0.00 0.00 0.00 96 1019.0
20260905105043 47 146 4.0 5.0 0.00 0.00 0.00 96 1018.8
20260905104603 47 120 3.0 6.0 0.00 0.00 0.00 95 1018.7
20260905104038 47 166 3.0 6.0 0.00 0.00 0.00 95 1018.6
20260905103600 47 179 3.0 10.0 0.00 0.00 0.00 95 1018.6
20260905103041 47 198 6.0 10.0 0.00 0.00 0.00 95 1018.4
20260905102543 47 217 5.0 11.0 0.00 0.00 0.00 95 1018.4
20260905102032 47 202 4.0 8.0 0.00 0.00 0.00 95 1018.4
20260905101534 47 198 5.0 9.0 0.00 0.00 0.00 95 1018.4
20260905101036 47 185 5.0 8.0 0.00 0.00 0.00 95 1018.4
20260905100538 47 171 3.0 5.0 0.00 0.00 0.00 95 1018.3
20260905100039 47 174 3.0 5.0 0.00 0.00 0.00 95 1018.2
20260905095603 47 179 2.0 5.0 0.00 0.00 0.00 95 1018.0
20260905095103 47 201 2.0 5.0 0.00 0.00 0.00 95 1018.0
20260905094605 47 144 2.0 5.0 0.00 0.00 0.00 95 1017.9
20260905094102 47 163 3.0 5.0 0.00 0.00 0.00 95 1017.9
20260905093543 47 163 3.0 5.0 0.00 0.00 0.00 94 1017.8
20260905093026 47 181 3.0 5.0 0.00 0.00 0.00 94 1017.7
20260905092609 47 176 327.0 327.0 0.00 0.00 0.00 94 1017.3